Weather History for Monticello, IA

Change the Weather History Date:

Friday, January 25, 2013

  Actual Average Record
Temperature  
Mean Temperature 22 °F -  
Max Temperature 33 °F 26 °F 59 °F (2002)
Min Temperature 12 °F 12 °F -16 °F (2008)
Degree Days  
Heating Degree Days 42    
Moisture  
Dew Point 9 °F    
Average Humidity 56    
Maximum Humidity 73    
Minimum Humidity 37    
Precipitation  
Precipitation 0.00 in - - ()
Sea Level Pressure  
Sea Level Pressure 30.11 in    
Wind  
Wind Speed 12 mph (West)    
Max Wind Speed 25 mph    
Max Gust Speed 34 mph    
Visibility 10 miles    
Events      
Averages and records for this station are not official NWS values.
T = Trace of Precipitation, MM = Missing Value Source: NWS Daily Summary

Daily Weather History Graph

Daily Weather History Graph

Search for Another Location

Airport:

Trip Planner

Search our weather history database for the weather conditions in past years. The results will help you decide how hot, cold, wet, or windy it might be!

Date:

Astronomy

Jan. 25, 2013 Rise Set
Actual Time 7:24 AM CST 5:10 PM CST
Civil Twilight 6:53 AM CST 5:40 PM CST
Nautical Twilight 6:20 AM CST 6:14 PM CST
Astronomical Twilight 5:46 AM CST 6:47 PM CST
Moon 4:07 PM CST (1/25) 6:04 AM CST (1/25)
Length of Visible Light 10h 46m
Length of Day
9h 46m
Waxing Gibbous, 98% of the Moon is Illuminated
Jan 25
Waxing Gibbous
Jan 26
Full
Feb 3
Last Quarter
Feb 10
New
Feb 17
First Quarter

Hourly Weather History & Observations

Time (CST) Temp. Windchill Dew Point Humidity Pressure Visibility Wind Dir Wind Speed Gust Speed Precip Events Conditions
12:15 AM 21.2 °F 10.1 °F 8.6 °F 58% 30.24 in 10.0 mi SE 10.4 mph - N/A   Overcast
12:35 AM 21.2 °F 8.9 °F 8.6 °F 58% 30.23 in 10.0 mi SE 12.7 mph 16.1 mph N/A   Overcast
12:55 AM 21.2 °F 10.1 °F 8.6 °F 58% 30.22 in 10.0 mi SE 10.4 mph - N/A   Scattered Clouds
1:15 AM 21.2 °F 11.7 °F 8.6 °F 58% 30.22 in 10.0 mi SSE 8.1 mph - N/A   Mostly Cloudy
1:35 AM 21.2 °F 11.7 °F 8.6 °F 58% 30.21 in 10.0 mi SSE 8.1 mph - N/A   Overcast
1:55 AM 21.2 °F 11.7 °F 8.6 °F 58% 30.20 in 10.0 mi SSE 8.1 mph - N/A   Overcast
2:15 AM 21.2 °F 10.9 °F 8.6 °F 58% 30.19 in 10.0 mi SSE 9.2 mph - N/A   Overcast
2:35 AM 21.2 °F 11.7 °F 8.6 °F 58% 30.18 in 10.0 mi SSE 8.1 mph - N/A   Overcast
2:55 AM 21.2 °F 10.1 °F 8.6 °F 58% 30.15 in 10.0 mi SSE 10.4 mph - N/A   Overcast
3:15 AM 21.2 °F 9.5 °F 8.6 °F 58% 30.14 in 10.0 mi SSE 11.5 mph - N/A   Overcast
3:35 AM 21.2 °F 12.6 °F 10.4 °F 63% 30.16 in 10.0 mi SSE 6.9 mph - N/A   Overcast
3:55 AM 21.2 °F 13.6 °F 10.4 °F 63% 30.15 in 10.0 mi South 5.8 mph - N/A   Overcast
4:15 AM 23.0 °F 17.0 °F 10.4 °F 59% 30.14 in 10.0 mi South 4.6 mph - N/A   Overcast
4:35 AM 21.2 °F 11.7 °F 10.4 °F 63% 30.14 in 10.0 mi South 8.1 mph - N/A   Overcast
4:55 AM 23.0 °F 13.1 °F 10.4 °F 59% 30.11 in 10.0 mi South 9.2 mph - N/A   Overcast
5:15 AM 21.2 °F 13.6 °F 10.4 °F 63% 30.11 in 10.0 mi South 5.8 mph - N/A   Overcast
5:35 AM 23.0 °F 15.8 °F 10.4 °F 59% 30.11 in 10.0 mi South 5.8 mph - N/A   Overcast
5:55 AM 23.0 °F 14.7 °F 10.4 °F 59% 30.11 in 10.0 mi SSW 6.9 mph - N/A   Overcast
6:15 AM 23.0 °F 15.8 °F 10.4 °F 59% 30.10 in 10.0 mi SSW 5.8 mph - N/A   Overcast
6:35 AM 23.0 °F 15.8 °F 12.2 °F 63% 30.09 in 10.0 mi SW 5.8 mph - N/A   Overcast
6:55 AM 23.0 °F 13.1 °F 10.4 °F 59% 30.08 in 10.0 mi SW 9.2 mph - N/A   Overcast
7:35 AM 23.0 °F 12.4 °F 10.4 °F 59% 30.08 in 10.0 mi SW 10.4 mph - N/A   Overcast
7:55 AM 23.0 °F 12.4 °F 12.2 °F 63% 30.08 in 10.0 mi WSW 10.4 mph - N/A   Overcast
8:15 AM 21.2 °F 9.5 °F 10.4 °F 63% 30.08 in 10.0 mi WSW 11.5 mph - N/A   Mostly Cloudy
8:35 AM 23.0 °F 12.4 °F 10.4 °F 59% 30.07 in 10.0 mi WSW 10.4 mph - N/A   Scattered Clouds
8:55 AM 24.8 °F 13.4 °F 10.4 °F 54% 30.06 in 10.0 mi WSW 12.7 mph - N/A   Clear
9:15 AM 24.8 °F 12.9 °F 10.4 °F 54% 30.06 in 10.0 mi WSW 13.8 mph - N/A   Clear
9:35 AM 26.6 °F 13.8 °F 10.4 °F 51% 30.06 in 10.0 mi West 17.3 mph 21.9 mph N/A   Clear
9:55 AM 26.6 °F 13.8 °F 10.4 °F 51% 30.06 in 10.0 mi West 17.3 mph - N/A   Clear
10:15 AM 26.6 °F 14.7 °F 10.4 °F 51% 30.06 in 10.0 mi West 15.0 mph - N/A   Clear
10:35 AM 28.4 °F 16.6 °F 10.4 °F 47% 30.05 in 10.0 mi West 16.1 mph - N/A   Clear
10:55 AM 28.4 °F 16.6 °F 10.4 °F 47% 30.04 in 10.0 mi West 16.1 mph - N/A   Clear
11:15 AM 30.2 °F 19.3 °F 10.4 °F 44% 30.04 in 10.0 mi West 15.0 mph 25.3 mph N/A   Clear
11:35 AM 30.2 °F 18.9 °F 10.4 °F 44% 30.02 in 10.0 mi West 16.1 mph 19.6 mph N/A   Clear
11:55 AM 30.2 °F 17.8 °F 10.4 °F 44% 30.01 in 10.0 mi West 19.6 mph 24.2 mph N/A   Clear
12:15 PM 32.0 °F 21.2 °F 10.4 °F 41% 30.00 in 10.0 mi West 16.1 mph 25.3 mph N/A   Clear
12:35 PM 32.0 °F 19.8 °F 10.4 °F 41% 29.99 in 10.0 mi WNW 20.7 mph - N/A   Clear
12:55 PM 32.0 °F 18.6 °F 12.2 °F 44% 29.99 in 10.0 mi West 25.3 mph 29.9 mph N/A   Clear
1:15 PM 33.8 °F 21.9 °F 17.6 °F 52% 30.00 in 10.0 mi West 21.9 mph 26.5 mph N/A   Scattered Clouds
1:35 PM 30.2 °F 17.8 °F 17.6 °F 60% 30.01 in 10.0 mi WNW 19.6 mph 28.8 mph N/A   Overcast
1:55 PM 30.2 °F 17.1 °F 17.6 °F 60% 30.01 in 10.0 mi WNW 21.9 mph 27.6 mph N/A   Overcast
2:15 PM 30.2 °F 16.5 °F 17.6 °F 60% 30.01 in 10.0 mi WNW 24.2 mph 29.9 mph N/A   Overcast
2:35 PM 30.2 °F 16.8 °F 17.6 °F 60% 30.02 in 10.0 mi WNW 23.0 mph 31.1 mph N/A   Overcast
2:55 PM 30.2 °F 18.9 °F 17.6 °F 60% 30.02 in 10.0 mi WNW 16.1 mph 27.6 mph N/A   Overcast
3:15 PM 30.2 °F 16.2 °F 17.6 °F 60% 30.01 in 10.0 mi WNW 25.3 mph - N/A   Overcast
3:35 PM 32.0 °F 19.2 °F 17.6 °F 55% 30.01 in 10.0 mi WNW 23.0 mph 33.4 mph N/A   Overcast
3:55 PM 30.2 °F 16.8 °F 17.6 °F 60% 30.03 in 10.0 mi WNW 23.0 mph 31.1 mph N/A   Scattered Clouds
4:15 PM 32.0 °F 19.2 °F 17.6 °F 55% 30.03 in 10.0 mi WNW 23.0 mph 34.5 mph N/A   Clear
4:35 PM 30.2 °F 18.5 °F 15.8 °F 55% 30.04 in 10.0 mi NW 17.3 mph 24.2 mph N/A   Clear
4:55 PM 28.4 °F 15.8 °F 10.4 °F 47% 30.05 in 10.0 mi NW 18.4 mph 31.1 mph N/A   Clear
5:15 PM 26.6 °F 13.1 °F 6.8 °F 43% 30.06 in 10.0 mi NW 19.6 mph 28.8 mph N/A   Clear
5:35 PM 26.6 °F 12.0 °F 3.2 °F 37% 30.07 in 10.0 mi WNW 23.0 mph 31.1 mph N/A   Clear
5:55 PM 24.8 °F 11.5 °F 5.0 °F 43% 30.09 in 10.0 mi NW 17.3 mph 23.0 mph N/A   Clear
6:15 PM 23.0 °F 11.7 °F 3.2 °F 43% 30.10 in 10.0 mi NW 11.5 mph 26.5 mph N/A   Clear
6:35 PM 21.2 °F 7.3 °F 3.2 °F 46% 30.11 in 10.0 mi NW 16.1 mph 24.2 mph N/A   Clear
6:55 PM 21.2 °F 7.8 °F 3.2 °F 46% 30.13 in 10.0 mi NW 15.0 mph 18.4 mph N/A   Clear
7:15 PM 21.2 °F 9.5 °F 3.2 °F 46% 30.14 in 10.0 mi NW 11.5 mph 20.7 mph N/A   Clear
7:35 PM 19.4 °F 5.0 °F 3.2 °F 49% 30.15 in 10.0 mi WNW 16.1 mph 23.0 mph N/A   Clear
7:55 PM 19.4 °F 6.0 °F 3.2 °F 49% 30.15 in 10.0 mi NW 13.8 mph 20.7 mph N/A   Clear
8:15 PM 17.6 °F 5.0 °F 3.2 °F 53% 30.16 in 10.0 mi NW 11.5 mph 20.7 mph N/A   Clear
8:35 PM 17.6 °F 6.4 °F 5.0 °F 58% 30.17 in 10.0 mi NW 9.2 mph 16.1 mph N/A   Clear
8:55 PM 17.6 °F 4.3 °F 5.0 °F 58% 30.18 in 10.0 mi NNW 12.7 mph - N/A   Clear
9:15 PM 17.6 °F 3.7 °F 5.0 °F 58% 30.19 in 10.0 mi NNW 13.8 mph - N/A   Clear
9:35 PM 15.8 °F 2.1 °F 5.0 °F 62% 30.20 in 10.0 mi NNW 12.7 mph - N/A   Clear
9:55 PM 15.8 °F 2.1 °F 5.0 °F 62% 30.20 in 10.0 mi NNW 12.7 mph 17.3 mph N/A   Clear
10:15 PM 15.8 °F 3.4 °F 5.0 °F 62% 30.22 in 10.0 mi NW 10.4 mph - N/A   Clear
10:35 PM 14.0 °F 2.9 °F 5.0 °F 67% 30.23 in 10.0 mi NW 8.1 mph - N/A   Clear
10:55 PM 14.0 °F 1.2 °F 5.0 °F 67% 30.24 in 10.0 mi NW 10.4 mph - N/A   Clear
11:15 PM 14.0 °F 2.9 °F 3.2 °F 62% 30.26 in 10.0 mi NNW 8.1 mph - N/A   Clear
11:35 PM 12.2 °F -1.0 °F 5.0 °F 73% 30.25 in 10.0 mi NW 10.4 mph 16.1 mph N/A   Clear
11:55 PM 12.2 °F 0.7 °F 3.2 °F 67% 30.25 in 10.0 mi NNW 8.1 mph - N/A   Clear